weather.gov     
National Weather Service

Terminal Aerodrome Forecast
NWS Homepage
This page is being discontinued on March 12, 2014.
The same data is available at this site. Please update your bookmarks.
Thank you, and we apologize for the inconvenience.
Please send an email to SR-SRH.Webmaster@noaa.gov with any concerns.


Current Version
Previous Version:    01  02  03  04  05  06  07  08  09  10  11  12  13  14  15  16  17  18  19  20  21  
[Printable]
381
FTUS42 KTBW 301400 AAA
TAFSRQ
TAF AMD
KSRQ 301459Z 3015/3112 VRB04KT P6SM VCSH SCT025 BKN080
     FM301700 27006KT P6SM VCTS SCT030CB BKN080
     FM302100 29007KT P6SM VCSH SCT035 BKN080
     FM310000 32005KT P6SM SCT040 BKN080
     FM310600 35004KT P6SM SCT040=


U.S. Dept. of Commerce
NOAA National Weather Service
1325 East West Highway
Silver Spring, MD 20910
E-mail: w-nws.webmaster@noaa.gov
Page last modified: May 16, 2007
NATIONAL WEATHER SERVICE: for Safety, for Work, for Fun - FOR LIFE